Powrót do katalogu

STARLINK-5913

AktywnyŁącznośćVLEO
NORAD 55937·PAYLOAD·🇺🇸 United States

Wystrzelony Mar 17, 2023 z Vandenberg Space Force Base

Loading…

Następne Przeloty (najbliższe 24 godziny)

TLE

ŚwieżeSource: CelesTrak SupGP

Epoka: Sep 15, 2026, 01:27 UTC

1 55937C 23037Z   26258.06090278  .00357650  00000+0  29069-1 0  2589
2 55937  70.0005 167.0257 0003062 272.9957 141.1570 14.99330319    15

Śledź STARLINK-5913 w czasie rzeczywistym z AllMySat

Download on the App Store